| time (UTC) | temp C | wind direction | speed KPH | gust KPH | rain 1hr cm | rain 24hr cm | rain mn cm | humidity % | barometer mb |
| 20260510220332 | 18 | 57 | 0.0 | 3.2 | 0.00 | 0.10 | 0.03 | 78 | 1010.8 |
| 20260510215835 | 18 | 59 | 0.0 | 1.6 | 0.00 | 0.10 | 0.03 | 80 | 1010.7 |
| 20260510215336 | 18 | 59 | 0.0 | 1.6 | 0.00 | 0.18 | 0.03 | 79 | 1010.5 |
| 20260510214835 | 18 | 59 | 0.0 | 1.6 | 0.00 | 0.18 | 0.03 | 78 | 1010.5 |
| 20260510214336 | 18 | 59 | 0.0 | 3.2 | 0.00 | 0.18 | 0.03 | 78 | 1010.6 |
| 20260510213835 | 18 | 59 | 0.0 | 3.2 | 0.00 | 0.18 | 0.03 | 78 | 1010.6 |
| 20260510213340 | 18 | 62 | 0.0 | 1.6 | 0.00 | 0.18 | 0.03 | 76 | 1010.5 |
| 20260510212822 | 18 | 62 | 0.0 | 4.8 | 0.00 | 0.18 | 0.03 | 75 | 1010.3 |
| 20260510212325 | 18 | 62 | 0.0 | 4.8 | 0.00 | 0.18 | 0.03 | 75 | 1010.3 |
| 20260510211900 | 18 | 63 | 0.0 | 4.8 | 0.03 | 0.18 | 0.03 | 75 | 1010.3 |
| 20260510211325 | 18 | 61 | 0.0 | 3.2 | 0.03 | 0.18 | 0.03 | 76 | 1010.2 |
| 20260510210831 | 18 | 66 | 0.0 | 1.6 | 0.03 | 0.18 | 0.03 | 75 | 1010.0 |
| 20260510210346 | 18 | 68 | 0.0 | 6.4 | 0.03 | 0.18 | 0.03 | 75 | 1009.9 |
| 20260510205848 | 18 | 46 | 0.0 | 11.3 | 0.03 | 0.18 | 0.03 | 74 | 1010.2 |
| 20260510205327 | 18 | 349 | 3.2 | 11.3 | 0.03 | 0.61 | 0.03 | 72 | 1010.3 |
| 20260510204833 | 19 | 21 | 1.6 | 9.7 | 0.03 | 0.61 | 0.03 | 72 | 1010.3 |
| 20260510204340 | 19 | 262 | 0.0 | 4.8 | 0.03 | 0.61 | 0.03 | 71 | 1010.3 |
| 20260510203822 | 19 | 32 | 0.0 | 3.2 | 0.03 | 0.61 | 0.03 | 68 | 1010.2 |
| 20260510203332 | 19 | 32 | 0.0 | 8.0 | 0.03 | 0.61 | 0.03 | 68 | 1010.1 |
| 20260510202841 | 20 | 10 | 1.6 | 16.1 | 0.03 | 0.61 | 0.03 | 65 | 1009.9 |
| 20260510202342 | 20 | 11 | 3.2 | 16.1 | 0.03 | 0.61 | 0.03 | 64 | 1009.8 |
| 20260510201840 | 20 | 24 | 0.0 | 12.9 | 0.00 | 0.58 | 0.00 | 64 | 1009.7 |
| 20260510201358 | 20 | 336 | 1.6 | 12.9 | 0.00 | 0.58 | 0.00 | 65 | 1009.6 |
| 20260510200821 | 21 | 37 | 1.6 | 9.7 | 0.00 | 0.58 | 0.00 | 67 | 1009.5 |
| 20260510200324 | 21 | 248 | 4.8 | 9.7 | 0.00 | 0.58 | 0.00 | 64 | 1009.2 |
| 20260510195832 | 21 | 5 | 0.0 | 4.8 | 0.00 | 0.58 | 0.00 | 64 | 1009.1 |
| 20260510195338 | 21 | 63 | 0.0 | 4.8 | 0.00 | 0.91 | 0.00 | 61 | 1009.0 |
| 20260510194839 | 21 | 64 | 0.0 | 11.3 | 0.00 | 0.91 | 0.00 | 62 | 1009.2 |
| 20260510194340 | 22 | 63 | 1.6 | 11.3 | 0.00 | 0.91 | 0.00 | 65 | 1009.4 |
| 20260510193843 | 22 | 165 | 3.2 | 8.0 | 0.00 | 0.91 | 0.00 | 61 | 1009.1 |
| 20260510193344 | 22 | 54 | 1.6 | 8.0 | 0.00 | 0.91 | 0.00 | 63 | 1009.4 |
| 20260510192847 | 22 | 44 | 0.0 | 8.0 | 0.00 | 0.91 | 0.00 | 63 | 1009.3 |
| 20260510192343 | 23 | 360 | 1.6 | 8.0 | 0.00 | 0.91 | 0.00 | 65 | 1009.3 |
| 20260510191821 | 22 | 360 | 0.0 | 1.6 | 0.00 | 0.91 | 0.00 | 68 | 1009.4 |
| 20260510191322 | 22 | 360 | 0.0 | 1.6 | 0.00 | 0.91 | 0.00 | 69 | 1009.4 |
| 20260510190823 | 22 | 360 | 0.0 | 8.0 | 0.00 | 0.91 | 0.00 | 68 | 1009.4 |
| 20260510190327 | 22 | 360 | 3.2 | 8.0 | 0.00 | 0.91 | 0.00 | 71 | 1009.6 |
| 20260510185859 | 21 | 209 | 0.0 | 12.9 | 0.00 | 0.91 | 0.00 | 68 | 1009.5 |
| 20260510185406 | 21 | 209 | 3.2 | 12.9 | 0.00 | 0.91 | 0.00 | 68 | 1009.6 |
| 20260510184848 | 21 | 17 | 1.6 | 9.7 | 0.00 | 0.91 | 0.00 | 76 | 1009.7 |
| 20260510184329 | 21 | 213 | 0.0 | 6.4 | 0.00 | 0.91 | 0.00 | 75 | 1009.6 |
| 20260510183835 | 22 | 213 | 0.0 | 11.3 | 0.00 | 0.91 | 0.00 | 74 | 1009.6 |
| 20260510183337 | 22 | 213 | 3.2 | 11.3 | 0.00 | 0.91 | 0.00 | 73 | 1009.6 |
| 20260510182835 | 22 | 200 | 1.6 | 8.0 | 0.00 | 0.91 | 0.00 | 75 | 1009.7 |
| 20260510182335 | 22 | 123 | 0.0 | 9.7 | 0.00 | 0.91 | 0.00 | 74 | 1009.6 |
| 20260510181837 | 22 | 200 | 0.0 | 9.7 | 0.00 | 0.91 | 0.00 | 74 | 1009.6 |
| 20260510181338 | 22 | 64 | 0.0 | 4.8 | 0.00 | 0.91 | 0.00 | 73 | 1009.7 |
| 20260510180847 | 22 | 22 | 1.6 | 12.9 | 0.00 | 0.91 | 0.00 | 74 | 1009.6 |
| 20260510180348 | 22 | 136 | 1.6 | 12.9 | 0.00 | 0.91 | 0.00 | 77 | 1009.6 |
| 20260510175832 | 22 | 149 | 1.6 | 9.7 | 0.00 | 0.91 | 0.00 | 75 | 1009.6 |
| 20260510175338 | 21 | 186 | 0.0 | 6.4 | 0.00 | 0.91 | 0.00 | 74 | 1009.6 |
| 20260510174823 | 21 | 163 | 0.0 | 6.4 | 0.00 | 0.91 | 0.00 | 75 | 1009.6 |
| 20260510174325 | 21 | 223 | 0.0 | 8.0 | 0.00 | 0.91 | 0.00 | 76 | 1009.6 |
| 20260510173855 | 21 | 116 | 0.0 | 1.6 | 0.00 | 0.91 | 0.00 | 74 | 1009.7 |
| 20260510173346 | 21 | 117 | 0.0 | 9.7 | 0.00 | 0.91 | 0.00 | 74 | 1009.8 |
| 20260510172827 | 21 | 117 | 1.6 | 9.7 | 0.00 | 0.91 | 0.00 | 75 | 1009.7 |
| 20260510172324 | 21 | 90 | 0.0 | 14.5 | 0.00 | 0.91 | 0.00 | 75 | 1009.8 |
| 20260510171833 | 21 | 205 | 0.0 | 6.4 | 0.00 | 0.91 | 0.00 | 81 | 1009.7 |
| 20260510171333 | 20 | 205 | 1.6 | 11.3 | 0.00 | 0.91 | 0.00 | 78 | 1009.8 |
| 20260510170837 | 21 | 241 | 0.0 | 11.3 | 0.00 | 0.91 | 0.00 | 80 | 1010.0 |
| 20260510170320 | 20 | 223 | 1.6 | 8.0 | 0.00 | 0.91 | 0.00 | 82 | 1009.8 |
| 20260510165826 | 20 | 127 | 0.0 | 6.4 | 0.00 | 0.91 | 0.00 | 80 | 1009.9 |
| 20260510165326 | 20 | 192 | 0.0 | 6.4 | 0.00 | 0.94 | 0.00 | 82 | 1009.9 |
| 20260510164829 | 20 | 206 | 0.0 | 8.0 | 0.00 | 0.94 | 0.00 | 82 | 1010.1 |
| 20260510164327 | 19 | 206 | 1.6 | 6.4 | 0.00 | 0.94 | 0.00 | 82 | 1010.2 |
| 20260510163832 | 19 | 111 | 0.0 | 4.8 | 0.00 | 0.94 | 0.00 | 84 | 1010.3 |
| 20260510163333 | 18 | 110 | 0.0 | 4.8 | 0.00 | 0.94 | 0.00 | 83 | 1010.3 |
| 20260510162825 | 18 | 109 | 0.0 | 6.4 | 0.00 | 0.94 | 0.00 | 85 | 1010.4 |
| 20260510162358 | 18 | 110 | 1.6 | 8.0 | 0.00 | 0.94 | 0.00 | 83 | 1010.4 |
| 20260510161824 | 19 | 213 | 3.2 | 8.0 | 0.00 | 0.94 | 0.00 | 81 | 1010.5 |
| 20260510161322 | 19 | 155 | 0.0 | 9.7 | 0.00 | 0.94 | 0.00 | 82 | 1010.5 |
| 20260510160851 | 19 | 134 | 4.8 | 11.3 | 0.00 | 0.94 | 0.00 | 82 | 1010.4 |
| 20260510160334 | 19 | 208 | 0.0 | 6.4 | 0.00 | 0.94 | 0.00 | 83 | 1010.4 |
| 20260510155837 | 18 | 139 | 0.0 | 1.6 | 0.00 | 0.94 | 0.00 | 86 | 1010.4 |
| 20260510155337 | 18 | 139 | 0.0 | 8.0 | 0.00 | 0.94 | 0.00 | 83 | 1010.5 |
| 20260510154838 | 18 | 139 | 1.6 | 8.0 | 0.00 | 0.94 | 0.00 | 82 | 1010.6 |
| 20260510154339 | 18 | 139 | 0.0 | 6.4 | 0.00 | 0.94 | 0.00 | 83 | 1010.6 |
| 20260510153825 | 18 | 125 | 0.0 | 4.8 | 0.00 | 0.94 | 0.00 | 85 | 1010.7 |
| 20260510153321 | 18 | 71 | 0.0 | 3.2 | 0.00 | 0.94 | 0.00 | 86 | 1010.7 |
| 20260510152822 | 17 | 71 | 0.0 | 3.2 | 0.00 | 0.94 | 0.00 | 86 | 1010.7 |
| 20260510152325 | 17 | 125 | 0.0 | 1.6 | 0.00 | 0.94 | 0.00 | 86 | 1010.8 |
| 20260510151826 | 17 | 125 | 0.0 | 6.4 | 0.00 | 0.94 | 0.00 | 85 | 1010.9 |
| 20260510151328 | 17 | 125 | 1.6 | 9.7 | 0.00 | 0.94 | 0.00 | 86 | 1010.8 |
| 20260510150834 | 17 | 86 | 1.6 | 9.7 | 0.00 | 0.94 | 0.00 | 84 | 1010.8 |
| 20260510150334 | 17 | 132 | 0.0 | 6.4 | 0.00 | 0.94 | 0.00 | 85 | 1010.8 |
| 20260510145837 | 17 | 271 | 0.0 | 8.0 | 0.00 | 0.94 | 0.00 | 87 | 1010.8 |
| 20260510145319 | 17 | 276 | 3.2 | 8.0 | 0.00 | 0.94 | 0.00 | 87 | 1010.7 |
| 20260510144822 | 17 | 203 | 0.0 | 8.0 | 0.00 | 0.94 | 0.00 | 87 | 1010.7 |
| 20260510144328 | 17 | 196 | 3.2 | 8.0 | 0.00 | 0.94 | 0.00 | 88 | 1010.6 |
| 20260510143835 | 17 | 187 | 1.6 | 8.0 | 0.00 | 0.94 | 0.00 | 88 | 1010.6 |
| 20260510143338 | 16 | 93 | 0.0 | 4.8 | 0.00 | 0.94 | 0.00 | 89 | 1010.7 |
| 20260510142845 | 16 | 93 | 1.6 | 9.7 | 0.00 | 0.94 | 0.00 | 88 | 1010.8 |
| 20260510142344 | 16 | 86 | 1.6 | 9.7 | 0.00 | 0.94 | 0.00 | 91 | 1010.8 |
| 20260510141901 | 16 | 144 | 0.0 | 6.4 | 0.00 | 0.94 | 0.00 | 94 | 1010.8 |
| 20260510141341 | 15 | 144 | 1.6 | 6.4 | 0.00 | 0.94 | 0.00 | 95 | 1010.9 |
| 20260510140841 | 15 | 144 | 0.0 | 1.6 | 0.00 | 0.94 | 0.00 | 97 | 1010.8 |
| 20260510140321 | 14 | 144 | 0.0 | 4.8 | 0.00 | 0.94 | 0.00 | 98 | 1010.9 |
| 20260510135825 | 13 | 144 | 1.6 | 4.8 | 0.00 | 0.94 | 0.00 | 99 | 1011.0 |
| 20260510135327 | 13 | 141 | 0.0 | 1.6 | 0.00 | 0.94 | 0.00 | 99 | 1010.9 |
| 20260510134834 | 13 | 141 | 0.0 | 1.6 | 0.00 | 0.94 | 0.00 | 100 | 1010.8 |
| 20260510134335 | 13 | 141 | 0.0 | 1.6 | 0.00 | 0.94 | 0.00 | 100 | 1010.8 |
| 20260510133827 | 13 | 141 | 0.0 | 3.2 | 0.00 | 0.94 | 0.00 | 100 | 1010.8 |
| 20260510133336 | 13 | 141 | 0.0 | 1.6 | 0.00 | 0.94 | 0.00 | 100 | 1010.8 |
| 20260510132839 | 12 | 141 | 0.0 | 1.6 | 0.00 | 0.94 | 0.00 | 100 | 1010.8 |
| 20260510132323 | 12 | 141 | 0.0 | 1.6 | 0.00 | 0.94 | 0.00 | 100 | 1010.8 |
| 20260510131825 | 12 | 141 | 0.0 | 0.0 | 0.00 | 0.94 | 0.00 | 100 | 1010.9 |
| 20260510131327 | 12 | 141 | 0.0 | 0.0 | 0.00 | 0.94 | 0.00 | 100 | 1010.9 |
| 20260510130830 | 12 | 141 | 0.0 | 0.0 | 0.00 | 0.94 | 0.00 | 100 | 1011.0 |
| 20260510130401 | 12 | 141 | 0.0 | 0.0 | 0.00 | 0.94 | 0.00 | 100 | 1010.9 |
| 20260510125840 | 12 | 141 | 0.0 | 1.6 | 0.00 | 0.94 | 0.00 | 100 | 1010.8 |
| 20260510125340 | 12 | 141 | 0.0 | 1.6 | 0.00 | 0.94 | 0.00 | 100 | 1010.7 |
| 20260510124840 | 12 | 141 | 0.0 | 4.8 | 0.00 | 0.94 | 0.00 | 100 | 1010.6 |
| 20260510124344 | 12 | 141 | 0.0 | 4.8 | 0.00 | 0.94 | 0.00 | 100 | 1010.6 |
| 20260510123823 | 12 | 141 | 0.0 | 3.2 | 0.00 | 0.94 | 0.00 | 100 | 1010.5 |
| 20260510123324 | 12 | 141 | 0.0 | 3.2 | 0.00 | 0.94 | 0.00 | 100 | 1010.5 |
| 20260510122833 | 12 | 141 | 0.0 | 0.0 | 0.00 | 0.94 | 0.00 | 100 | 1010.5 |
| 20260510122335 | 12 | 141 | 0.0 | 0.0 | 0.00 | 0.94 | 0.00 | 100 | 1010.5 |
| 20260510121841 | 11 | 141 | 0.0 | 0.0 | 0.00 | 0.94 | 0.00 | 100 | 1010.5 |
| 20260510121320 | 11 | 141 | 0.0 | 0.0 | 0.00 | 0.94 | 0.00 | 100 | 1010.5 |
| 20260510120827 | 11 | 141 | 0.0 | 0.0 | 0.00 | 0.94 | 0.00 | 100 | 1010.6 |
| 20260510120320 | 11 | 141 | 0.0 | 0.0 | 0.00 | 0.94 | 0.00 | 100 | 1010.6 |
| 20260510115833 | 11 | 141 | 0.0 | 0.0 | 0.00 | 0.94 | 0.00 | 100 | 1010.5 |
| 20260510115338 | 11 | 141 | 0.0 | 0.0 | 0.00 | 0.94 | 0.00 | 100 | 1010.5 |
| 20260510114838 | 11 | 141 | 0.0 | 0.0 | 0.00 | 0.94 | 0.00 | 100 | 1010.5 |
| 20260510114406 | 11 | 141 | 0.0 | 0.0 | 0.00 | 0.94 | 0.00 | 100 | 1010.4 |
| 20260510113844 | 11 | 141 | 0.0 | 0.0 | 0.00 | 0.94 | 0.00 | 100 | 1010.4 |
| 20260510113324 | 11 | 141 | 0.0 | 0.0 | 0.00 | 0.94 | 0.00 | 100 | 1010.3 |
| 20260510112824 | 11 | 141 | 0.0 | 0.0 | 0.00 | 0.94 | 0.00 | 100 | 1010.3 |
| 20260510112328 | 11 | 141 | 0.0 | 0.0 | 0.00 | 0.94 | 0.00 | 100 | 1010.2 |
| 20260510111834 | 11 | 141 | 0.0 | 0.0 | 0.00 | 0.94 | 0.00 | 100 | 1010.2 |
| 20260510111333 | 11 | 141 | 0.0 | 0.0 | 0.00 | 0.94 | 0.00 | 100 | 1010.2 |
| 20260510110839 | 11 | 141 | 0.0 | 0.0 | 0.00 | 0.94 | 0.00 | 100 | 1010.0 |
| 20260510110338 | 11 | 141 | 0.0 | 0.0 | 0.00 | 0.94 | 0.00 | 100 | 1010.0 |
| 20260510105845 | 11 | 141 | 0.0 | 0.0 | 0.00 | 0.94 | 0.00 | 100 | 1010.1 |
| 20260510105345 | 11 | 141 | 0.0 | 0.0 | 0.00 | 0.99 | 0.00 | 100 | 1010.1 |
| 20260510104832 | 11 | 141 | 0.0 | 0.0 | 0.00 | 0.99 | 0.00 | 100 | 1009.9 |
| 20260510104331 | 11 | 141 | 0.0 | 0.0 | 0.00 | 0.99 | 0.00 | 100 | 1010.0 |
| 20260510103838 | 11 | 141 | 0.0 | 0.0 | 0.00 | 0.99 | 0.00 | 100 | 1009.9 |
| 20260510103322 | 11 | 141 | 0.0 | 1.6 | 0.00 | 0.99 | 0.00 | 100 | 1009.8 |
| 20260510102828 | 11 | 141 | 0.0 | 0.0 | 0.00 | 0.99 | 0.00 | 100 | 1009.7 |
| 20260510102327 | 11 | 141 | 0.0 | 0.0 | 0.00 | 0.99 | 0.00 | 100 | 1009.9 |
| 20260510101837 | 11 | 141 | 0.0 | 0.0 | 0.00 | 0.99 | 0.00 | 100 | 1009.9 |
| 20260510101345 | 11 | 141 | 0.0 | 0.0 | 0.00 | 0.99 | 0.00 | 100 | 1009.9 |
| 20260510100858 | 11 | 141 | 0.0 | 1.6 | 0.00 | 0.99 | 0.00 | 100 | 1009.7 |
| 20260510100337 | 11 | 141 | 0.0 | 0.0 | 0.00 | 0.99 | 0.00 | 100 | 1009.6 |
| 20260510095827 | 11 | 141 | 0.0 | 0.0 | 0.00 | 0.99 | 0.00 | 100 | 1009.4 |
| 20260510095333 | 10 | 141 | 0.0 | 1.6 | 0.00 | 1.07 | 0.00 | 100 | 1009.5 |
| 20260510094832 | 10 | 141 | 0.0 | 1.6 | 0.00 | 1.07 | 0.00 | 100 | 1009.4 |
| 20260510094407 | 10 | 141 | 0.0 | 0.0 | 0.00 | 1.07 | 0.00 | 100 | 1009.7 |
| 20260510093847 | 10 | 141 | 0.0 | 0.0 | 0.00 | 1.07 | 0.00 | 100 | 1009.7 |
| 20260510093326 | 10 | 141 | 0.0 | 0.0 | 0.00 | 1.07 | 0.00 | 100 | 1009.6 |
| 20260510092829 | 10 | 141 | 0.0 | 0.0 | 0.00 | 1.07 | 0.00 | 100 | 1009.6 |
| 20260510092328 | 10 | 141 | 0.0 | 0.0 | 0.00 | 1.07 | 0.00 | 100 | 1009.6 |
| 20260510091834 | 10 | 141 | 0.0 | 0.0 | 0.00 | 1.07 | 0.00 | 100 | 1009.7 |
| 20260510091332 | 11 | 141 | 0.0 | 0.0 | 0.00 | 1.07 | 0.00 | 100 | 1009.8 |
| 20260510090838 | 11 | 141 | 0.0 | 0.0 | 0.00 | 1.07 | 0.00 | 100 | 1009.5 |
| 20260510090336 | 11 | 141 | 0.0 | 0.0 | 0.00 | 1.07 | 0.00 | 100 | 1009.7 |
| 20260510085820 | 11 | 141 | 0.0 | 0.0 | 0.00 | 1.07 | 0.00 | 100 | 1009.7 |
| 20260510085326 | 11 | 141 | 0.0 | 0.0 | 0.00 | 1.17 | 0.00 | 100 | 1009.9 |
| 20260510084826 | 11 | 141 | 0.0 | 0.0 | 0.00 | 1.17 | 0.00 | 100 | 1009.9 |
| 20260510084331 | 11 | 141 | 0.0 | 0.0 | 0.00 | 1.17 | 0.00 | 100 | 1010.0 |
| 20260510083826 | 11 | 141 | 0.0 | 0.0 | 0.00 | 1.17 | 0.00 | 100 | 1009.9 |
| 20260510083327 | 11 | 141 | 0.0 | 0.0 | 0.00 | 1.17 | 0.00 | 100 | 1009.9 |
| 20260510082833 | 11 | 141 | 0.0 | 0.0 | 0.00 | 1.17 | 0.00 | 100 | 1009.8 |
| 20260510082321 | 11 | 141 | 0.0 | 0.0 | 0.00 | 1.17 | 0.00 | 100 | 1009.7 |
| 20260510081847 | 11 | 141 | 0.0 | 0.0 | 0.00 | 1.17 | 0.00 | 100 | 1009.6 |
| 20260510081327 | 11 | 141 | 0.0 | 0.0 | 0.00 | 1.17 | 0.00 | 100 | 1009.6 |
| 20260510080837 | 11 | 141 | 0.0 | 0.0 | 0.00 | 1.17 | 0.00 | 100 | 1009.8 |
| 20260510080338 | 11 | 141 | 0.0 | 0.0 | 0.00 | 1.17 | 0.00 | 100 | 1009.8 |
| 20260510075822 | 11 | 141 | 0.0 | 0.0 | 0.00 | 1.17 | 0.00 | 100 | 1009.8 |
| 20260510075410 | 11 | 141 | 0.0 | 0.0 | 0.00 | 1.17 | 0.00 | 100 | 1009.8 |
| 20260510074855 | 11 | 141 | 0.0 | 0.0 | 0.00 | 1.17 | 0.00 | 100 | 1009.7 |
| 20260510074335 | 11 | 141 | 0.0 | 0.0 | 0.00 | 1.17 | 0.00 | 100 | 1009.9 |
| 20260510073840 | 11 | 141 | 0.0 | 0.0 | 0.00 | 1.17 | 0.00 | 100 | 1009.4 |
| 20260510073340 | 11 | 141 | 0.0 | 0.0 | 0.00 | 1.17 | 0.00 | 100 | 1009.5 |
| 20260510072821 | 11 | 141 | 0.0 | 0.0 | 0.00 | 1.17 | 0.00 | 100 | 1009.5 |
| 20260510072348 | 11 | 141 | 0.0 | 0.0 | 0.00 | 1.17 | 0.00 | 100 | 1009.5 |
| 20260510071823 | 11 | 141 | 0.0 | 0.0 | 0.00 | 1.17 | 0.00 | 100 | 1009.6 |
| 20260510071323 | 11 | 141 | 0.0 | 0.0 | 0.00 | 1.17 | 0.00 | 100 | 1009.6 |
| 20260510070824 | 11 | 141 | 0.0 | 0.0 | 0.00 | 1.17 | 0.00 | 100 | 1009.5 |
| 20260510070352 | 11 | 141 | 0.0 | 0.0 | 0.00 | 1.17 | 0.00 | 100 | 1009.4 |
| 20260510065838 | 11 | 141 | 0.0 | 0.0 | 0.00 | 1.17 | 0.00 | 100 | 1009.5 |
| 20260510065338 | 11 | 141 | 0.0 | 0.0 | 0.00 | 1.17 | 0.00 | 100 | 1009.4 |
| 20260510064824 | 11 | 141 | 0.0 | 0.0 | 0.00 | 1.17 | 0.00 | 100 | 1009.4 |
| 20260510064326 | 11 | 141 | 0.0 | 0.0 | 0.00 | 1.17 | 0.00 | 100 | 1009.4 |
| 20260510063828 | 11 | 141 | 0.0 | 0.0 | 0.00 | 1.17 | 0.00 | 100 | 1009.6 |
| 20260510063326 | 11 | 141 | 0.0 | 0.0 | 0.00 | 1.17 | 0.00 | 100 | 1009.3 |
| 20260510062835 | 11 | 141 | 0.0 | 0.0 | 0.00 | 1.17 | 0.00 | 100 | 1009.4 |
| 20260510062326 | 11 | 141 | 0.0 | 0.0 | 0.00 | 1.17 | 0.00 | 100 | 1009.2 |
| 20260510061835 | 11 | 141 | 0.0 | 0.0 | 0.00 | 1.17 | 0.00 | 100 | 1009.2 |
| 20260510061325 | 11 | 141 | 0.0 | 0.0 | 0.00 | 1.17 | 0.00 | 100 | 1009.1 |
| 20260510060852 | 11 | 141 | 0.0 | 0.0 | 0.00 | 1.17 | 0.00 | 100 | 1009.1 |
| 20260510060342 | 11 | 141 | 0.0 | 0.0 | 0.00 | 1.17 | 0.00 | 100 | 1009.0 |
| 20260510055826 | 11 | 141 | 0.0 | 0.0 | 0.00 | 1.17 | 0.00 | 100 | 1009.1 |
| 20260510055328 | 11 | 141 | 0.0 | 0.0 | 0.00 | 1.17 | 0.00 | 100 | 1009.1 |
| 20260510054827 | 11 | 141 | 0.0 | 0.0 | 0.00 | 1.17 | 0.00 | 100 | 1009.1 |
| 20260510054327 | 11 | 141 | 0.0 | 0.0 | 0.00 | 1.17 | 0.00 | 100 | 1009.2 |
| 20260510053833 | 11 | 141 | 0.0 | 0.0 | 0.00 | 1.17 | 0.00 | 100 | 1009.2 |
| 20260510053337 | 11 | 141 | 0.0 | 0.0 | 0.00 | 1.17 | 0.00 | 100 | 1009.1 |
| 20260510052826 | 11 | 141 | 0.0 | 0.0 | 0.00 | 1.17 | 0.00 | 100 | 1009.1 |
| 20260510052326 | 11 | 141 | 0.0 | 0.0 | 0.00 | 1.17 | 0.00 | 100 | 1009.1 |
| 20260510051833 | 11 | 141 | 0.0 | 0.0 | 0.00 | 1.17 | 0.00 | 100 | 1009.4 |
| 20260510051343 | 11 | 141 | 0.0 | 0.0 | 0.00 | 1.17 | 0.00 | 100 | 1009.3 |
| 20260510050859 | 11 | 141 | 0.0 | 0.0 | 0.00 | 1.17 | 0.00 | 100 | 1009.4 |
| 20260510050320 | 11 | 141 | 0.0 | 0.0 | 0.00 | 1.17 | 0.00 | 100 | 1009.4 |
| 20260510045842 | 11 | 141 | 0.0 | 0.0 | 0.00 | 1.17 | 0.00 | 100 | 1009.4 |
| 20260510045353 | 11 | 141 | 0.0 | 0.0 | 0.00 | 1.17 | 0.00 | 100 | 1009.4 |
| 20260510044832 | 11 | 141 | 0.0 | 0.0 | 0.00 | 1.17 | 0.00 | 100 | 1009.5 |
| 20260510044329 | 11 | 141 | 0.0 | 0.0 | 0.00 | 1.17 | 0.00 | 100 | 1009.4 |
| 20260510043835 | 11 | 141 | 0.0 | 0.0 | 0.00 | 1.17 | 0.00 | 100 | 1009.4 |
| 20260510043336 | 11 | 141 | 0.0 | 0.0 | 0.00 | 1.17 | 0.00 | 100 | 1009.4 |
| 20260510042826 | 11 | 141 | 0.0 | 0.0 | 0.00 | 1.17 | 0.00 | 100 | 1009.4 |
| 20260510042356 | 11 | 141 | 0.0 | 0.0 | 0.00 | 1.17 | 0.00 | 100 | 1009.3 |
| 20260510041836 | 11 | 141 | 0.0 | 0.0 | 0.00 | 1.17 | 0.00 | 100 | 1009.2 |
| 20260510041337 | 11 | 141 | 0.0 | 0.0 | 0.00 | 1.17 | 0.00 | 100 | 1009.2 |
| 20260510040840 | 11 | 141 | 0.0 | 0.0 | 0.00 | 1.17 | 0.00 | 100 | 1009.3 |
| 20260510040327 | 11 | 141 | 0.0 | 0.0 | 0.00 | 1.17 | 0.00 | 100 | 1009.4 |
| 20260510035826 | 11 | 141 | 0.0 | 0.0 | 0.00 | 1.17 | 0.00 | 100 | 1009.4 |
| 20260510035359 | 11 | 141 | 0.0 | 0.0 | 0.00 | 1.17 | 1.17 | 100 | 1009.3 |
| 20260510034839 | 11 | 141 | 0.0 | 0.0 | 0.00 | 1.17 | 1.17 | 100 | 1009.4 |
| 20260510034327 | 11 | 141 | 0.0 | 0.0 | 0.00 | 1.17 | 1.17 | 100 | 1009.5 |
| 20260510033828 | 11 | 141 | 0.0 | 0.0 | 0.00 | 1.17 | 1.17 | 100 | 1009.4 |
| 20260510033335 | 11 | 141 | 0.0 | 0.0 | 0.00 | 1.17 | 1.17 | 100 | 1009.4 |
| 20260510032839 | 11 | 141 | 0.0 | 1.6 | 0.00 | 1.17 | 1.17 | 100 | 1009.5 |
| 20260510032336 | 11 | 137 | 0.0 | 1.6 | 0.00 | 1.17 | 1.17 | 100 | 1009.4 |
| 20260510031821 | 11 | 136 | 0.0 | 0.0 | 0.00 | 1.17 | 1.17 | 100 | 1009.5 |
| 20260510031322 | 11 | 136 | 0.0 | 0.0 | 0.00 | 1.17 | 1.17 | 100 | 1009.5 |
| 20260510030826 | 11 | 136 | 0.0 | 1.6 | 0.00 | 1.17 | 1.17 | 100 | 1009.6 |
| 20260510030326 | 11 | 136 | 0.0 | 1.6 | 0.00 | 1.17 | 1.17 | 100 | 1009.5 |
| 20260510025827 | 11 | 137 | 0.0 | 0.0 | 0.00 | 1.17 | 1.17 | 100 | 1009.4 |
| 20260510025327 | 11 | 137 | 0.0 | 0.0 | 0.00 | 1.17 | 1.17 | 100 | 1009.2 |
| 20260510024823 | 11 | 137 | 0.0 | 0.0 | 0.00 | 1.17 | 1.17 | 100 | 1009.2 |
| 20260510024354 | 11 | 137 | 0.0 | 0.0 | 0.00 | 1.17 | 1.17 | 100 | 1009.1 |
| 20260510023834 | 11 | 137 | 0.0 | 0.0 | 0.00 | 1.17 | 1.17 | 100 | 1009.1 |
| 20260510023338 | 11 | 137 | 0.0 | 0.0 | 0.00 | 1.17 | 1.17 | 100 | 1009.1 |
| 20260510022827 | 11 | 137 | 0.0 | 0.0 | 0.00 | 1.17 | 1.17 | 100 | 1009.1 |
| 20260510022328 | 11 | 137 | 0.0 | 0.0 | 0.00 | 1.17 | 1.17 | 100 | 1009.3 |
| 20260510021829 | 11 | 137 | 0.0 | 0.0 | 0.00 | 1.17 | 1.17 | 100 | 1009.2 |
| 20260510021328 | 11 | 137 | 0.0 | 0.0 | 0.00 | 1.17 | 1.17 | 100 | 1009.2 |
| 20260510020829 | 11 | 137 | 0.0 | 0.0 | 0.00 | 1.17 | 1.17 | 100 | 1009.4 |
| 20260510020337 | 11 | 137 | 0.0 | 0.0 | 0.00 | 1.17 | 1.17 | 100 | 1009.3 |
| 20260510015843 | 11 | 137 | 0.0 | 0.0 | 0.00 | 1.17 | 1.17 | 100 | 1009.4 |
| 20260510015347 | 11 | 137 | 0.0 | 0.0 | 0.00 | 1.17 | 1.17 | 100 | 1009.5 |
| 20260510014829 | 11 | 137 | 0.0 | 0.0 | 0.00 | 1.17 | 1.17 | 100 | 1009.5 |
| 20260510014323 | 11 | 137 | 0.0 | 0.0 | 0.00 | 1.17 | 1.17 | 100 | 1009.5 |
| 20260510013828 | 11 | 137 | 0.0 | 0.0 | 0.00 | 1.17 | 1.17 | 100 | 1009.5 |
| 20260510013329 | 11 | 137 | 0.0 | 0.0 | 0.00 | 1.17 | 1.17 | 100 | 1009.5 |
| 20260510012829 | 11 | 137 | 0.0 | 0.0 | 0.00 | 1.17 | 1.17 | 100 | 1009.5 |
| 20260510012355 | 11 | 137 | 0.0 | 0.0 | 0.00 | 1.17 | 1.17 | 100 | 1009.5 |
| 20260510011840 | 11 | 137 | 0.0 | 0.0 | 0.00 | 1.17 | 1.17 | 100 | 1009.4 |
| 20260510011337 | 11 | 137 | 0.0 | 0.0 | 0.00 | 1.17 | 1.17 | 100 | 1009.2 |
| 20260510010837 | 11 | 137 | 0.0 | 0.0 | 0.00 | 1.17 | 1.17 | 100 | 1009.1 |
| 20260510010327 | 11 | 137 | 0.0 | 0.0 | 0.00 | 1.17 | 1.17 | 100 | 1009.0 |
| 20260510005832 | 11 | 137 | 0.0 | 0.0 | 0.00 | 1.17 | 1.17 | 100 | 1009.0 |
| 20260510005403 | 11 | 137 | 0.0 | 0.0 | 0.00 | 1.17 | 1.17 | 100 | 1009.0 |
| 20260510004843 | 11 | 137 | 0.0 | 0.0 | 0.00 | 1.17 | 1.17 | 100 | 1008.8 |
| 20260510004340 | 11 | 137 | 0.0 | 0.0 | 0.00 | 1.17 | 1.17 | 100 | 1008.9 |
| 20260510003842 | 11 | 137 | 0.0 | 0.0 | 0.00 | 1.17 | 1.17 | 100 | 1008.9 |
| 20260510003329 | 11 | 137 | 0.0 | 0.0 | 0.00 | 1.17 | 1.17 | 100 | 1008.8 |
| 20260510002832 | 11 | 137 | 0.0 | 0.0 | 0.00 | 1.17 | 1.17 | 100 | 1008.7 |
| 20260510002339 | 11 | 137 | 0.0 | 0.0 | 0.00 | 1.17 | 1.17 | 100 | 1008.7 |
| 20260510001823 | 11 | 137 | 0.0 | 0.0 | 0.00 | 1.17 | 1.17 | 100 | 1008.5 |
| 20260510001320 | 11 | 137 | 0.0 | 0.0 | 0.00 | 1.17 | 1.17 | 100 | 1008.6 |
| 20260510000824 | 11 | 137 | 0.0 | 0.0 | 0.00 | 1.17 | 1.17 | 100 | 1008.5 |
| 20260510000328 | 11 | 137 | 0.0 | 0.0 | 0.00 | 1.17 | 1.17 | 100 | 1008.4 |
| 20260509235828 | 11 | 137 | 0.0 | 0.0 | 0.00 | 1.17 | 1.17 | 100 | 1008.3 |
| 20260509235327 | 11 | 137 | 0.0 | 0.0 | 0.00 | 1.17 | 1.17 | 100 | 1008.4 |
| 20260509234828 | 11 | 137 | 0.0 | 0.0 | 0.00 | 1.17 | 1.17 | 100 | 1008.5 |
| 20260509234338 | 11 | 137 | 0.0 | 0.0 | 0.00 | 1.17 | 1.17 | 100 | 1008.5 |
| 20260509233823 | 11 | 137 | 0.0 | 0.0 | 0.00 | 1.17 | 1.17 | 100 | 1008.6 |
| 20260509233325 | 11 | 137 | 0.0 | 0.0 | 0.00 | 1.17 | 1.17 | 100 | 1008.6 |
| 20260509232829 | 11 | 137 | 0.0 | 0.0 | 0.00 | 1.17 | 1.17 | 100 | 1008.8 |
| 20260509232330 | 11 | 137 | 0.0 | 0.0 | 0.00 | 1.17 | 1.17 | 100 | 1008.8 |
| 20260509231832 | 11 | 137 | 0.0 | 0.0 | 0.00 | 1.17 | 1.17 | 100 | 1008.9 |
| 20260509231336 | 11 | 137 | 0.0 | 0.0 | 0.03 | 1.17 | 1.17 | 100 | 1008.9 |
| 20260509230823 | 11 | 137 | 0.0 | 0.0 | 0.05 | 1.17 | 1.17 | 100 | 1008.9 |
| 20260509230327 | 11 | 137 | 0.0 | 0.0 | 0.05 | 1.17 | 1.17 | 100 | 1009.0 |
| 20260509225834 | 11 | 137 | 0.0 | 0.0 | 0.08 | 1.17 | 1.17 | 100 | 1009.0 |
| 20260509225332 | 11 | 137 | 0.0 | 0.0 | 0.08 | 1.17 | 1.17 | 100 | 1009.0 |
| 20260509224902 | 11 | 137 | 0.0 | 0.0 | 0.08 | 1.17 | 1.17 | 100 | 1009.0 |
| 20260509224345 | 11 | 136 | 0.0 | 0.0 | 0.10 | 1.17 | 1.17 | 100 | 1009.0 |
| 20260509223856 | 11 | 136 | 0.0 | 0.0 | 0.10 | 1.17 | 1.17 | 100 | 1009.0 |
| 20260509223332 | 11 | 136 | 0.0 | 0.0 | 0.10 | 1.17 | 1.17 | 100 | 1009.1 |
| 20260509222902 | 11 | 137 | 0.0 | 0.0 | 0.10 | 1.17 | 1.17 | 100 | 1009.1 |
| 20260509222342 | 11 | 137 | 0.0 | 1.6 | 0.10 | 1.17 | 1.17 | 100 | 1009.2 |
| 20260509221843 | 11 | 137 | 0.0 | 1.6 | 0.10 | 1.14 | 1.14 | 100 | 1009.0 |
| 20260509221324 | 11 | 137 | 0.0 | 0.0 | 0.08 | 1.12 | 1.12 | 100 | 1009.2 |
| 20260509220853 | 11 | 137 | 0.0 | 0.0 | 0.08 | 1.12 | 1.12 | 100 | 1009.2 |